Location: *
(34.0486°S, 61.7880°E)
Time: 19:59:21
(UTC+00:00)

SMAP - Pass Details

Date: 01 April 2020
Orbit: 681 x 683 km, 98.1° (Epoch: 02 June)

Event Time Altitude Azimuth Distance (km) Brightness Sun altitude
Rises 14:09:50 0° 169° (S) 3,076 6.3 -5.5°
Reaches altitude 10° 14:12:05 10° 169° (S) 2,153 5.5 -5.9°
Maximum altitude 14:16:49 85° 258° (WSW) 697 3.2 -6.9°
Drops below altitude 10° 14:21:28 10° 345° (NNW) 2,125 5.8 -7.9°
Sets 14:23:42 0° 345° (NNW) 3,032 6.6 -8.3°
